Regional Weather Roundup
Issued by NWS

Home | Current Version | Previous Version | Graphics & Text | Print | Product List | Glossary On
Versions: 1 2 3 4 5 6 7 8 9 10 11 12 13 14 15 16 17 18 19 20 21 22 23 24 25 26 27 28 29 30 31 32 33 34 35 36 37 38 39 40 41 42 43 44 45 46 47 48 49 50
000
ASUS43 KTOP 292259
RWRKS

WEATHER ROUNDUP FOR KANSAS
NATIONAL WEATHER SERVICE GOODLAND KS
600 PM CDT FRI MAY 29 2015

NOTE:  "FAIR" INDICATES FEW OR NO CLOUDS BELOW 12,000 FEET WITH NO
SIGNIFICANT WEATHER AND/OR OBSTRUCTIONS TO VISIBILITY.

KSZ001>006-013>018-027>032-041>047-300000-
NORTHWEST KANSAS

CITY           SKY/WX    TMP DP  RH WIND       PRES   REMARKS
GOODLAND       PTSUNNY   58  54  86 N20G28    30.14R
HAYS           SUNNY     79  55  44 NW8       29.97S
HILL CITY      MOSUNNY   79  56  45 N6        29.98R
RUSSELL        SUNNY     79  56  45 N6        29.95S
$$

KSZ061>065-074>080-084>089-300000-
SOUTHWEST KANSAS

CITY           SKY/WX    TMP DP  RH WIND       PRES   REMARKS
DODGE CITY     PTSUNNY   79  55  43 N10       30.01S
ELKHART          N/A     75  52  44 NE10        N/A
GARDEN CITY    MOSUNNY   75  53  46 N9        30.03S
GREAT BEND     MOSUNNY   79  57  47 NW3       29.96S
LIBERAL        SUNNY     75  54  46 N13       30.06R
$$

KSZ066>073-081>083-090>101-300000-
SOUTHEAST KANSAS

CITY           SKY/WX    TMP DP  RH WIND       PRES   REMARKS
CHANUTE        CLOUDY    70  66  87 SE3       29.94F
COFFEYVILLE    CLOUDY    69  66  90 E6        29.92F
HUTCHINSON     CLOUDY    79  61  53 N6        29.94F
MEDICINE LODGE   N/A     80  58  46 N5        29.94S
NEWTON         CLOUDY    77  61  57 CALM      29.96F
PARSONS        CLOUDY    69  67  93 CALM      29.95F
WICHITA INTL   CLOUDY    78  60  53 CALM      29.93S
WICHITA JABRA  CLOUDY    77  63  61 CALM      29.93F
WICHITA MCCONL CLOUDY    77  64  65 SE6       29.93F HAZE
WINFIELD       CLOUDY    76  65  68 E7        29.94F
$$

KSZ007>012-019>026-033>040-048>060-102>105-300000-
NORTHEAST KANSAS

CITY           SKY/WX    TMP DP  RH WIND       PRES   REMARKS
CONCORDIA      PTSUNNY   78  60  53 CALM      29.93S
EMPORIA        CLOUDY    72  65  78 S8        29.95S
LAWRENCE       CLOUDY    72  65  78 S8        29.95F
MANHATTAN      PTSUNNY   77  66  68 SW5       29.92F
OLATHE IND     CLOUDY    69  65  86 S9        29.97F
OLATHE EXE     CLOUDY    68  66  93 S8        29.96S
SALINA         CLOUDY    79  59  50 NW5       29.94S
TOPEKA BILLARD CLOUDY    73  66  78 S9        29.94F
TOPEKA FORBES  CLOUDY    73  65  75 S8        29.94F
$$


USA.gov is the U.S. government's official web portal to all federal, state and local government web resources and services.